[[{"header":{"parameterUnit":"m.s-1","parameterCategory":1,"la1":30.2991,"la2":30.254,"lo1":-89.0895,"lo2":-89.0444,"dy":0.0017,"dx":0.0017,"nx":28,"ny":28,"refTime":"2024-03-15T09:00:00:Z","depth":0,"parameterNumber":2,"parameterNumberName":"U-component_of_WINDS"},"data":[0,0,0,0,0,0,0,0,0,0,0,0,0,0,0,0,0,0,0,0,0,0,0,0,0,0,0,0,0,0,0,0,0,0,0,0,0,0,0,0,0,0,0,0,0,0,0,0,0,0,0,0,0,0,0,0,0,0,0.2386,0.2387,0,0.2501,0.2502,0.2504,0.252,0.2519,0.2518,0.2517,0.2638,0.2642,0.2646,0,0,0,0,0,0,0,0,0,0,0,0,0,0.2185,0.2188,0.2386,0.2387,0.2389,0.2501,0.2502,0.2504,0.2521,0.2519,0.2518,0.2517,0.2636,0.2641,0.2646,0,0,0,0,0,0,0,0,0,0,0,0,0,0.2283,0.219,0.2386,0.2411,0.2414,0.25,0.2502,0.2504,0.2521,0.2519,0.2518,0.2516,0.2635,0.2641,0.2647,0.2717,0,0,0.2666,0.2669,0,0,0,0,0,0,0,0,0.2278,0.2291,0.2406,0.2409,0.2413,0.2495,0.2476,0.2576,0.2521,0.248,0.2517,0.2515,0.2592,0.2601,0.2626,0.2723,0.2728,0.2667,0.267,0.2673,0.2675,0,0,0,0,0,0,0,0.2271,0.2286,0.2432,0.2407,0.2412,0.2417,0.243,0.2495,0.2544,0.2484,0.2485,0.2499,0.2593,0.262,0.2629,0.273,0.2667,0.2672,0.2676,0.2678,0.2893,0.2895,0,0,0,0,0,0,0.2259,0.228,0.2428,0.2435,0.234,0.2422,0.2436,0.247,0.2543,0.2552,0.25,0.2499,0.261,0.2622,0.2634,0.2723,0.2673,0.2679,0.2683,0.2891,0.2893,0.2895,0,0,0,0,0,0,0.2255,0.2272,0.2423,0.2358,0.2378,0.2427,0.2466,0.2473,0.25,0.2555,0.2564,0.2518,0.261,0.2625,0.2697,0.2727,0.2682,0.2688,0.2889,0.2892,0.2894,0.29,0,0,0,0,0,0,0.2249,0.227,0.2297,0.2358,0.2381,0.2483,0.2467,0.2477,0.2511,0.2511,0.2575,0.2584,0.2609,0.2687,0.2703,0.2735,0.2692,0.2886,0.289,0.2893,0.2897,0.2903,0.2907,0,0,0,0,0,0.2241,0.2294,0.2298,0.2316,0.2415,0.2485,0.2498,0.2526,0.2513,0.2541,0.2576,0.2582,0.2721,0.2695,0.2712,0.2747,0.2884,0.2889,0.2893,0.2895,0.2902,0.2907,0,0,0,0,0,0,0.2235,0.2302,0.2308,0.2381,0.2427,0.2488,0.2523,0.2532,0.2583,0.2581,0.2614,0.2629,0.27,0.273,0.27,0.282,0.2802,0.281,0.2797,0.2804,0.2809,0.2801,0.2698,0,0,0,0,0,0.2242,0.2292,0.2349,0.2408,0.2431,0.2473,0.2505,0.2522,0.2572,0.2592,0.2632,0.2681,0.2736,0.2771,0.2825,0.2902,0.2917,0.2934,0.2939,0.2943,0.295,0.2995,0.3004,0.291,0.2909,0.2909,0,0,0.2257,0.23,0.233,0.2408,0.2446,0.2499,0.2489,0.2545,0.2585,0.26,0.2671,0.2703,0.2759,0.2835,0.287,0.2862,0.2979,0.2948,0.2951,0.2956,0.3001,0.3009,0.3017,0.2912,0.2912,0.2911,0,0,0.2312,0.2348,0.2403,0.2441,0.2498,0.2526,0.2539,0.2599,0.2621,0.2692,0.2705,0.2754,0.2847,0.2888,0.292,0.2992,0.3,0.3009,0.3035,0.3079,0.3086,0.3093,0.3121,0.313,0.3015,0.3015,0.3015,0,0.2324,0.2403,0.243,0.2486,0.2521,0.2537,0.2593,0.2629,0.2701,0.2726,0.2716,0.2835,0.2874,0.296,0.2977,0.3003,0.3021,0.3002,0.3083,0.309,0.3097,0.3123,0.3133,0.3016,0.3016,0.3016,0.3016,0,0.2416,0.247,0.2508,0.2577,0.2616,0.2672,0.2709,0.2746,0.276,0.279,0.2863,0.2911,0.2975,0.2997,0.3011,0.3085,0.3079,0.3076,0.3059,0.3106,0.3132,0.3142,0.3017,0.3017,0.3017,0.3016,0,0,0.2469,0.2553,0.2567,0.2599,0.2664,0.2708,0.2765,0.2827,0.2859,0.2908,0.2959,0.3038,0.3036,0.3073,0.3093,0.3131,0.3187,0.3123,0.3125,0.3135,0.3274,0.3278,0.3289,0.3192,0.3194,0.3196,0.327,0,0.2533,0.2635,0.2662,0.275,0.2802,0.2818,0.2868,0.2914,0.2944,0.2993,0.3026,0.3083,0.3074,0.3097,0.3135,0.3172,0.3216,0.3167,0.3241,0.3244,0.3228,0.3302,0.3306,0.3374,0.328,0.3282,0.3283,0,0.2621,0.2672,0.2765,0.2824,0.2847,0.2892,0.2952,0.2999,0.3052,0.3071,0.3113,0.313,0.3192,0.3171,0.3258,0.3224,0.3257,0.3279,0.3283,0.3292,0.3267,0.3315,0.3396,0.3406,0.3299,0.3298,0.3297,0,0.2654,0.2746,0.2813,0.284,0.2911,0.2942,0.2974,0.3025,0.3062,0.3115,0.3139,0.3199,0.3232,0.3278,0.3311,0.3292,0.3397,0.3378,0.3416,0.3415,0.3438,0.3437,0.3527,0.3456,0.3456,0.3456,0.3456,0,0.2723,0.2779,0.2829,0.2871,0.2935,0.2966,0.303,0.3061,0.3108,0.3157,0.3174,0.3221,0.326,0.3313,0.3339,0.3409,0.3423,0.3441,0.3448,0.3441,0.3439,0.3463,0.346,0.3459,0.3458,0.3457,0.3457,0,0.2771,0.2806,0.2881,0.2942,0.2959,0.3004,0.3057,0.3099,0.3128,0.3191,0.3208,0.3255,0.3318,0.3355,0.3434,0.3452,0.353,0.3533,0.3511,0.3515,0.3552,0.3548,0.3662,0.368,0.3595,0.3596,0.3597,0,0.2813,0.2857,0.2923,0.2957,0.2988,0.3043,0.308,0.3113,0.3151,0.3216,0.3251,0.3315,0.3367,0.3467,0.3509,0.3571,0.3577,0.3613,0.3586,0.3579,0.358,0.3578,0.3583,0.3618,0.3618,0.3619,0.3619,0,0.2886,0.2902,0.2954,0.3013,0.3057,0.3105,0.3154,0.3181,0.3222,0.3265,0.3329,0.3369,0.345,0.3514,0.3579,0.3613,0.3624,0.3627,0.364,0.3634,0.362,0.363,0.3525,0.3625,0.3624,0.3624,0.3623,0.3623,0.2934,0.2974,0.3027,0.3086,0.3125,0.317,0.3213,0.3249,0.3302,0.337,0.3387,0.3455,0.3509,0.3597,0.3632,0.3687,0.3681,0.3699,0.3704,0.3708,0.371,0.361,0.3699,0.3699,0.3699,0.3699,0.3698,0,0.3009,0.3044,0.3098,0.3165,0.3211,0.3216,0.327,0.3309,0.3368,0.3417,0.3469,0.3543,0.3606,0.3653,0.3717,0.3752,0.3759,0.3768,0.3767,0.3775,0.371,0.3694,0.3761,0.3761,0.3761,0.3761,0.3761,0.3761,0.3054,0.3123,0.3145,0.3235,0.327,0.3336,0.3367,0.3409,0.3449,0.3531,0.3582,0.3612,0.3662,0.373,0.3788,0.38,0.3824,0.3833,0.3846,0.3786,0.3779,0.3773,0.3757,0.3837,0.3837,0.3907,0.3907,0.3908]},{"header":{"parameterUnit":"m.s-1","parameterCategory":1,"la1":30.2991,"la2":30.254,"lo1":-89.0895,"lo2":-89.0444,"dy":0.0017,"dx":0.0017,"nx":28,"ny":28,"refTime":"2024-03-15T09:00:00:Z","depth":0,"parameterNumber":3,"parameterNumberName":"V-component_of_WINDS"},"data":[0,0,0,0,0,0,0,0,0,0,0,0,0,0,0,0,0,0,0,0,0,0,0,0,0,0,0,0,0,0,0,0,0,0,0,0,0,0,0,0,0,0,0,0,0,0,0,0,0,0,0,0,0,0,0,0,0,0,-2.3834,-2.3833,0,-2.3716,-2.3715,-2.3714,-2.3678,-2.3679,-2.3679,-2.368,-2.3552,-2.3548,-2.3545,0,0,0,0,0,0,0,0,0,0,0,0,0,-2.4024,-2.4021,-2.3835,-2.3833,-2.3832,-2.3717,-2.3715,-2.3713,-2.3678,-2.3679,-2.3679,-2.368,-2.3554,-2.3549,-2.3544,0,0,0,0,0,0,0,0,0,0,0,0,0,-2.3927,-2.402,-2.3835,-2.38,-2.3796,-2.3717,-2.3715,-2.3713,-2.3678,-2.3679,-2.368,-2.3681,-2.3555,-2.3549,-2.3544,-2.3488,0,0,-2.3525,-2.3523,0,0,0,0,0,0,0,0,-2.3933,-2.392,-2.3807,-2.3803,-2.3798,-2.3713,-2.3735,-2.3637,-2.3678,-2.3722,-2.368,-2.3681,-2.3605,-2.3595,-2.357,-2.3482,-2.3477,-2.3525,-2.3521,-2.3519,-2.3517,0,0,0,0,0,0,0,-2.3939,-2.3925,-2.3788,-2.3805,-2.38,-2.3789,-2.3776,-2.3716,-2.3659,-2.3719,-2.3716,-2.3703,-2.3602,-2.3576,-2.3567,-2.3475,-2.3525,-2.352,-2.3516,-2.3514,-2.3334,-2.3333,0,0,0,0,0,0,-2.3953,-2.3931,-2.3791,-2.3784,-2.3869,-2.3785,-2.377,-2.3739,-2.366,-2.3649,-2.3702,-2.3701,-2.3586,-2.3574,-2.3562,-2.3491,-2.3519,-2.3513,-2.351,-2.3336,-2.3334,-2.3333,0,0,0,0,0,0,-2.3957,-2.3941,-2.3796,-2.3857,-2.3837,-2.378,-2.3746,-2.3736,-2.371,-2.3648,-2.3637,-2.3686,-2.3586,-2.3571,-2.3507,-2.3487,-2.351,-2.3505,-2.3337,-2.3335,-2.3334,-2.335,0,0,0,0,0,0,-2.3963,-2.3943,-2.3922,-2.3857,-2.3834,-2.3745,-2.3744,-2.3733,-2.3701,-2.3699,-2.363,-2.3619,-2.3586,-2.3516,-2.3501,-2.3479,-2.35,-2.3338,-2.3336,-2.3334,-2.3351,-2.3349,-2.3347,0,0,0,0,0,-2.397,-2.393,-2.3921,-2.3905,-2.3808,-2.3744,-2.3731,-2.3695,-2.3699,-2.3677,-2.3637,-2.3621,-2.3492,-2.351,-2.3493,-2.3468,-2.334,-2.3337,-2.3334,-2.3352,-2.335,-2.3348,0,0,0,0,0,0,-2.3993,-2.3921,-2.391,-2.3849,-2.3803,-2.3738,-2.3709,-2.3693,-2.3643,-2.3643,-2.3599,-2.3584,-2.3523,-2.3489,-2.3511,-2.341,-2.3415,-2.3409,-2.3434,-2.3431,-2.343,-2.3438,-2.3495,0,0,0,0,0,-2.3991,-2.3947,-2.3886,-2.3837,-2.3815,-2.3766,-2.3737,-2.3713,-2.3663,-2.3642,-2.3598,-2.3548,-2.3495,-2.3462,-2.341,-2.3347,-2.333,-2.3321,-2.332,-2.3318,-2.3313,-2.3275,-2.327,-2.3324,-2.3324,-2.3324,0,0,-2.3986,-2.3942,-2.3916,-2.3841,-2.3802,-2.3755,-2.375,-2.37,-2.3665,-2.3634,-2.3572,-2.3537,-2.3478,-2.3414,-2.3384,-2.3384,-2.3295,-2.3315,-2.3314,-2.3309,-2.3272,-2.3267,-2.3263,-2.3322,-2.3323,-2.3323,0,0,-2.3954,-2.3916,-2.3872,-2.3834,-2.3777,-2.3745,-2.3734,-2.3671,-2.3648,-2.3585,-2.3561,-2.3517,-2.3429,-2.3387,-2.3355,-2.3308,-2.329,-2.3292,-2.3281,-2.3246,-2.3241,-2.3237,-2.3219,-2.3213,-2.3287,-2.3287,-2.3287,0,-2.3954,-2.3885,-2.385,-2.3802,-2.3769,-2.3743,-2.3696,-2.366,-2.3588,-2.3565,-2.3567,-2.3456,-2.3414,-2.334,-2.3329,-2.3304,-2.3288,-2.3299,-2.3245,-2.3241,-2.3236,-2.3218,-2.3212,-2.3288,-2.3287,-2.3287,-2.3287,0,-2.3888,-2.384,-2.381,-2.3744,-2.3708,-2.3661,-2.3617,-2.3585,-2.3565,-2.3532,-2.3467,-2.3417,-2.3355,-2.3336,-2.3315,-2.3258,-2.326,-2.3255,-2.3258,-2.3233,-2.3215,-2.3208,-2.3288,-2.3288,-2.3288,-2.3288,0,0,-2.3864,-2.3781,-2.3771,-2.374,-2.3675,-2.3636,-2.3588,-2.3529,-2.3501,-2.3452,-2.3409,-2.3335,-2.333,-2.3293,-2.3267,-2.3236,-2.3201,-2.3234,-2.3232,-2.3228,-2.3133,-2.3137,-2.3129,-2.319,-2.3188,-2.3187,-2.3138,0,-2.3822,-2.3736,-2.3704,-2.3633,-2.3587,-2.3562,-2.3519,-2.3473,-2.3442,-2.3397,-2.3361,-2.3309,-2.3307,-2.3284,-2.3252,-2.3212,-2.318,-2.3215,-2.3146,-2.3144,-2.3161,-2.312,-2.3123,-2.3079,-2.3131,-2.3129,-2.3128,0,-2.3761,-2.3715,-2.3639,-2.3581,-2.356,-2.3523,-2.3466,-2.3424,-2.3372,-2.3351,-2.331,-2.3287,-2.3233,-2.3241,-2.3165,-2.3189,-2.3159,-2.3135,-2.3133,-2.3123,-2.3134,-2.3108,-2.3064,-2.3057,-2.3117,-2.3118,-2.3119,0,-2.375,-2.3668,-2.3613,-2.3587,-2.3518,-2.3492,-2.3461,-2.341,-2.3376,-2.3326,-2.3304,-2.3248,-2.3216,-2.3173,-2.3134,-2.3144,-2.306,-2.3066,-2.3039,-2.304,-2.3021,-2.3023,-2.297,-2.3005,-2.3005,-2.3006,-2.3006,0,-2.3706,-2.366,-2.3607,-2.3572,-2.352,-2.3484,-2.3432,-2.3399,-2.3354,-2.3311,-2.3285,-2.3245,-2.3197,-2.3151,-2.312,-2.306,-2.3047,-2.3027,-2.3018,-2.3028,-2.303,-2.3006,-2.3007,-2.3004,-2.3004,-2.3004,-2.3005,0,-2.3684,-2.3647,-2.3584,-2.3524,-2.3508,-2.3472,-2.3419,-2.3383,-2.3352,-2.3297,-2.3283,-2.3231,-2.3175,-2.3132,-2.3059,-2.3038,-2.2974,-2.2967,-2.2992,-2.2988,-2.2963,-2.2965,-2.2892,-2.288,-2.2925,-2.2925,-2.2924,0,-2.3657,-2.3622,-2.3559,-2.3529,-2.3499,-2.3452,-2.3419,-2.3381,-2.3347,-2.3285,-2.3256,-2.3199,-2.315,-2.3061,-2.3016,-2.2959,-2.2948,-2.2927,-2.2939,-2.295,-2.2946,-2.2948,-2.2943,-2.2924,-2.2924,-2.2924,-2.2924,0,-2.3613,-2.3597,-2.3551,-2.3498,-2.346,-2.3416,-2.3371,-2.3348,-2.3302,-2.3265,-2.3208,-2.3171,-2.3097,-2.3039,-2.2978,-2.2944,-2.2925,-2.2921,-2.2911,-2.2919,-2.2935,-2.2924,-2.2986,-2.2922,-2.2922,-2.2922,-2.2922,-2.2922,-2.3586,-2.3554,-2.3504,-2.3454,-2.3417,-2.3376,-2.334,-2.3304,-2.3257,-2.3195,-2.3176,-2.3117,-2.3064,-2.298,-2.2946,-2.2897,-2.2897,-2.2884,-2.288,-2.2877,-2.2877,-2.2945,-2.2886,-2.2886,-2.2886,-2.2886,-2.2886,0,-2.3539,-2.3507,-2.3461,-2.3401,-2.3361,-2.335,-2.3301,-2.3267,-2.3216,-2.317,-2.3124,-2.3058,-2.3002,-2.2953,-2.2894,-2.2865,-2.2855,-2.2851,-2.2851,-2.2843,-2.2881,-2.2895,-2.286,-2.286,-2.286,-2.286,-2.286,-2.286,-2.351,-2.3454,-2.3432,-2.3357,-2.3324,-2.3268,-2.324,-2.3202,-2.3165,-2.3094,-2.3048,-2.3017,-2.2969,-2.2907,-2.2855,-2.2841,-2.282,-2.2818,-2.2802,-2.2838,-2.2841,-2.2844,-2.2856,-2.2814,-2.2814,-2.2768,-2.2767,-2.2767]}]]